Regional Weather Roundup
Issued by NWS State College, PA

Home | Current Version | Previous Version | Graphics & Text | Print | Product List | Glossary On
Versions: 1 2 3 4 5 6 7 8 9 10 11 12 13 14 15 16 17 18 19 20 21 22 23 24 25 26 27 28 29 30 31 32 33 34 35 36 37 38 39 40 41 42 43 44 45 46 47 48 49 50
000
ASUS41 KCTP 180810
RWRCTP

REGIONAL WEATHER ROUNDUP
NATIONAL WEATHER SERVICE STATE COLLEGE PA
400 AM EDT FRI APR 18 2014

Note: "fair" indicates few or no clouds below 12,000 feet with no
significant weather and/or obstructions to visibility.

* = STATION THAT DOES NOT REPORT PRECIPITATION /E.G. RAIN...SNOW...ETC/
    THUNDER OR FOG.

PAZ002>004-007>009-013>016-020>023-029>032-180900-
WESTERN PENNSYLVANIA

CITY           SKY/WX    TMP DP  RH WIND       PRES   REMARKS
ERIE           CLOUDY    47  26  44 S18G28    30.27S
MEADVILLE      PTCLDY    43  26  51 VRB7      30.30R
FRANKLIN*      PTCLDY    39  25  56 SE8       30.34R
NEW CASTLE     FAIR      44  26  49 CALM      30.32S
BEAVER COUNTY  NOT AVBL
BUTLER*        CLEAR     39  25  56 E7        30.33F
PITTSBURGH INT PTCLDY    43  27  53 SE6       30.31F
PITTSBURGH     CLEAR     44  27  51 SE6       30.30F
INDIANA*       CLEAR     39  28  65 SE6       30.35S
LATROBE        CLEAR     39  30  70 CALM      30.34F
WASHINGTON CO* CLEAR     36  27  69 CALM      30.32F
$$

PAZ004>006-010>012-017>019-024>028-033>037-041-042-045-046-049>053-180900-
CENTRAL PENNSYLVANIA

CITY           SKY/WX    TMP DP  RH WIND       PRES   REMARKS
BRADFORD       CLEAR     36  25  64 SE10      30.33F
DUBOIS         CLEAR     38  28  67 SE10      30.34S
CLEARFIELD     CLEAR     37  28  70 E3        30.40R
JOHNSTOWN      CLEAR     32  27  81 SE7       30.35S
ALTOONA        CLEAR     36  31  82 S8        30.43R
STATE COLLEGE  CLEAR     38  28  67 SE3       30.43R
WILLIAMSPORT   CLEAR     37  26  64 MISG      30.45F
SELINSGROVE    CLEAR     37  28  70 SE5       30.49F
FT INDIANTOWN  NOT AVBL
CAPITAL CITY   CLEAR     36  28  73 SE10      30.51S
HARRISBURG     PTCLDY    36  28  73 E7        30.51S
YORK           CLEAR     33  28  81 SE5       30.51R
$$

PAZ038>040-043-044-047-048-054-055-060>062-067>071-180900-
EASTERN PENNSYLVANIA

CITY           SKY/WX    TMP DP  RH WIND       PRES   REMARKS
SCRANTON       PTCLDY    34  27  75 VRB3      30.47F
MOUNT POCONO   CLOUDY    30  26  85 E7        30.42F
ALLENTOWN      CLOUDY    38  29  70 E5        30.50F
QUAKERTOWN*    CLOUDY    36  28  75 E8        30.50F
READING        CLOUDY    38  28  67 E8        30.50F
LANCASTER      CLOUDY    32  28  85 E3        30.49F
COATESVILLE    CLOUDY    36  28  75 E12G17    30.48F
POTTSTOWN      CLOUDY    36  29  75 E6        30.52F
BLUE BELL      CLOUDY    37  30  75 E5        30.50F
DOYLESTOWN     CLOUDY    35  29  78 VRB5      30.50F
WILLOW GROVE   NOT AVBL
NORTH PHILA    CLOUDY    40  28  62 E8        30.53F
PHILADELPHIA   CLOUDY    39  28  64 E10       30.52F
$$



USA.gov is the U.S. government's official web portal to all federal, state and local government web resources and services.